Regional Weather Roundup
Issued by NWS

Home | Current Version | Previous Version | Graphics & Text | Print | Product List | Glossary On
Versions: 1 2 3 4 5 6 7 8 9 10 11 12 13 14 15 16 17 18 19 20 21 22 23 24 25 26 27 28 29 30 31 32 33 34 35 36 37 38 39 40 41 42 43 44 45 46 47 48 49 50
789
ASUS44 KLIX 240905
RWRLA
LOUISIANA WEATHER ROUNDUP
NATIONAL WEATHER SERVICE NEW ORLEANS LA
400 AM CDT FRI OCT 24 2014

NOTE: "FAIR" INDICATES FEW OR NO CLOUDS BELOW 12,000 FEET WITH NO
      SIGNIFICANT WEATHER AND/OR OBSTRUCTIONS TO VISIBILITY.
      SKY/WX - SKY CONDITION AND SIGNIFICANT WEATHER.
      TMP - AIR TEMPERATURE.    DP   - DEWPOINT TEMPERATURE.
      RH  - RELATIVE HUMIDITY.  PRES - PRESSURE.
      HX  - HEAT INDEX.         WCI  - WIND CHILL INDEX.

*  THESE STATIONS ARE NOT NWS OR FAA STATIONS AND ARE NOT UNDER
   NWS QUALITY CONTROL.

LAZ040-048-061>063-065-066-069-241000-
SOUTHEAST LOUISIANA

CITY           SKY/WX    TMP DP  RH WIND       PRES   REMARKS
N.O. AUDUBON     N/A     58  51  77 MISG        N/A
N.O. INTL ARPT CLEAR     60  51  72 NE9       30.08R
N.O. LAKEFRONT CLEAR     64  53  67 NE14      30.08R
N.O. DOWNTOWN* FAIR      63  45  51 N3        30.09R
SLIDELL        CLEAR     49  47  93 N3        30.08R
BATON ROUGE    PTCLDY    52  49  89 CALM      30.09S
BOOTHVILLE     CLEAR     67  57  70 N6        30.05S
BELLE CHASSE   CLEAR     51  47  86 N3        30.07S
BOGALUSA*        N/A     50  47  88 CALM      30.11R
NEW ROADS*     FAIR      48  47  97 NW3       30.10S
GONZALES*      FAIR      53  53  97 NE3       30.09S
HAMMOND*       PTCLDY    50  48  93 CALM      30.11R
HOUMA*         CLEAR     54  52  94 N3        30.08R
PORT FOURCHON* SUNNY     63  57  82 N8        30.09S

$$

LAZ041-044-053-054-241000-
SOUTHWEST LOUISIANA

CITY           SKY/WX    TMP DP  RH WIND       PRES   REMARKS
LAKE CHARLES   CLEAR     53  49  86 N6        30.11S
LAFAYETTE      CLEAR     52  50  93 CALM      30.10S
PATTERSON      CLEAR     55  52  88 N5        30.11S
SALT POINT       N/A     58  53  84 VRB5      30.08S
NEW IBERIA     CLEAR     56  51  84 NE6       30.10S
CHENAULT AIRPK CLEAR     51  49  93 N5        30.12R

$$

LAZ027-028-241000-
CENTRAL LOUISIANA

CITY           SKY/WX    TMP DP  RH WIND       PRES   REMARKS
FORT POLK      CLEAR     52  49  90 NE7       30.12S
ALEXANDRIA INT CLEAR     47  46  97 S3        30.11F
ALEXANDRIA     CLEAR     43  43 100 CALM      30.12F

$$

LAZ001-002-241000-
NORTHWEST LOUISIANA

CITY           SKY/WX    TMP DP  RH WIND       PRES   REMARKS
SHREVEPORT     CLEAR     51  49  92 CALM      30.14S
BARKSDALE AFB  CLEAR     49  48  97 CALM      30.15R
DTN SHREVEPORT CLEAR     50  48  93 CALM      30.15R

$$

LAZ014-016-241000-
NORTHEAST LOUISIANA

CITY           SKY/WX    TMP DP  RH WIND       PRES   REMARKS
MONROE         CLEAR     45  43  93 N5        30.15S FOG
TALLULAH       PTCLDY    47  45  93 NW3       30.13S

$$




USA.gov is the U.S. government's official web portal to all federal, state and local government web resources and services.